Station TXVT2 - 8775302 - TX State Aquarium Visibility, TX Image indicating link to RSS feed of recent meteorological observations for station TXVT2


Conditions at TXVT2 as of
(1:54 pm CDT)
1854 GMT on 04/15/2024:
     

Click on the graph icon in the table below to see a time series plot of the last five days of that observation.

5-day plot - Atmospheric Pressure Atmospheric Pressure (PRES):29.82 in
5-day plot - Air Temperature Air Temperature (ATMP): 76.5 °F
5-day plot - Dew Point Dew Point (DEWP): 74.1 °F
5-day plot - Visibility Visibility (VIS): 5.9 nmi
NOS Water Level Observation Network Water Level
Previous observations
TIME
(CDT)
5-day plot - Wind Direction
WDIR
 
5-day plot - Wind Speed
WSPD
kts
5-day plot - Wind Gust
GST
kts
5-day plot - Wave Height
WVHT
ft
5-day plot - Dominant Wave Period
DPD
sec
5-day plot - Average Wave Period
APD
sec
5-day plot - Mean Wave Direction
MWD
 
5-day plot - Atmospheric Pressure
PRES
in
5-day plot - Pressure Tendency
PTDY
in
5-day plot - Air Temperature
ATMP
°F
5-day plot - Water Temperature
WTMP
°F
5-day plot - Dew Point
DEWP
°F
5-day plot - Salinity
SAL
psu
5-day plot - Visibility
VIS
nmi
5-day plot - Tide (above MLLW)
TIDE
ft
2024-04-15 01:48 pm-------29.82- 76.5- 74.1- 5.9-
2024-04-15 01:42 pm-------29.83- 76.6- 74.1- 5.9-
2024-04-15 01:36 pm-------29.83- 76.5- 74.1- 5.9-
2024-04-15 01:30 pm-------29.83- 76.6- 74.1- 5.9-
2024-04-15 01:24 pm-------29.83- 76.6- 74.1- 5.9-
2024-04-15 01:18 pm-------29.84- 76.5- 73.9- 5.9-
2024-04-15 01:12 pm-------29.84- 76.5- 73.9- 5.9-
2024-04-15 01:06 pm-------29.84- 76.6- 73.9- 5.9-
2024-04-15 01:00 pm-------29.84-0.03 76.6- 73.9- 5.9-
2024-04-15 12:54 pm-------29.84- 76.8- 73.9- 5.9-
2024-04-15 12:48 pm-------29.84- 76.8- 73.9- 5.9-
2024-04-15 12:42 pm-------29.84- 76.8- 73.9- 5.9-
2024-04-15 12:36 pm-------29.85- 76.8- 74.1- 5.9-
2024-04-15 12:30 pm-------29.85- 76.8- 74.3- 5.9-
2024-04-15 12:24 pm-------29.85- 76.8- 74.3- 5.9-
2024-04-15 12:18 pm-------29.85- 77.0- 74.3- 5.9-
2024-04-15 12:12 pm-------29.86- 76.6- 74.1- 5.9-
2024-04-15 12:06 pm-------29.86- 76.5- 74.1- 5.9-
2024-04-15 12:00 pm-------29.86+0.00 76.5- 74.1- 5.9-
2024-04-15 11:54 am-------29.86- 76.5- 74.1- 5.9-
2024-04-15 11:48 am-------29.86- 76.5- 74.3- 5.9-
2024-04-15 11:42 am-------29.86- 76.6- 74.3- 5.9-
2024-04-15 11:36 am-------29.86- 76.6- 74.3- 5.9-
2024-04-15 11:30 am-------29.86- 76.6- 74.3- 5.9-
2024-04-15 11:24 am-------29.86- 76.8- 74.5- 5.9-
2024-04-15 11:18 am-------29.86- 76.8- 74.3- 5.9-
2024-04-15 11:12 am-------29.86- 76.8- 74.1- 5.9-
2024-04-15 11:06 am-------29.86- 76.6- 74.5- 5.9-
2024-04-15 11:00 am-------29.86+0.00 76.3- 74.1- 5.9-
2024-04-15 10:54 am-------29.86- 76.5- 74.1- 5.9-
2024-04-15 10:48 am-------29.86- 76.3- 73.9- 5.9-
2024-04-15 10:42 am-------29.86- 76.6- 74.1- 5.9-
2024-04-15 10:36 am-------29.86- 76.5- 73.9- 5.9-
2024-04-15 10:30 am-------29.86- 76.5- 74.3- 5.9-
2024-04-15 10:24 am-------29.86- 76.1- 73.9- 5.9-
2024-04-15 10:18 am-------29.86- 75.9- 73.8- 5.9-
2024-04-15 10:12 am-------29.86- 75.9- 73.9- 5.9-
2024-04-15 10:06 am-------29.86- 75.7- 73.9- 5.9-
2024-04-15 10:00 am-------29.86+0.02 75.9- 74.1- 5.9-
2024-04-15 09:54 am-------29.86- 75.6- 73.8- 5.9-
2024-04-15 09:48 am-------29.86- 75.4- 73.9- 5.9-
2024-04-15 09:42 am-------29.86- 75.2- 73.8- 5.9-
2024-04-15 09:36 am-------29.86- 75.2- 73.8- 5.9-
2024-04-15 09:30 am-------29.87----- 5.9-
2024-04-15 09:24 am-------29.87----- 5.9-
2024-04-15 09:18 am-------29.87- 74.8- 73.6- 5.9-
2024-04-15 09:12 am-------29.86- 74.8- 73.8- 5.9-
2024-04-15 09:06 am-------29.86- 75.0- 73.8- 5.9-
2024-04-15 09:00 am-------29.86+0.03 74.8- 73.2- 5.9-
2024-04-15 08:54 am-------29.86- 75.0- 73.6- 5.9-
2024-04-15 08:48 am-------29.86- 74.8- 73.4- 5.9-
2024-04-15 08:42 am-------29.86- 74.7- 73.2- 5.9-
2024-04-15 08:36 am-------29.86- 74.7- 73.4- 5.9-
2024-04-15 08:30 am-------29.86- 74.7- 73.4- 5.9-
2024-04-15 08:24 am-------29.86- 74.7- 73.2- 5.9-
2024-04-15 08:18 am-------29.86- 74.7- 73.4- 5.9-
2024-04-15 08:12 am-------29.86- 74.5- 73.2- 5.9-
2024-04-15 08:06 am-------29.86- 74.5- 73.2- 5.9-
2024-04-15 08:00 am-------29.85+0.02 74.5- 73.2- 5.9-
2024-04-15 07:54 am-------29.85- 74.3- 72.9- 5.9-
2024-04-15 07:48 am-------29.85- 74.3- 72.7- 5.9-
2024-04-15 07:42 am-------29.85- 74.1- 72.5- 5.9-
2024-04-15 07:36 am-------29.85- 74.1- 72.7- 5.9-
2024-04-15 07:30 am-------29.85- 74.1- 72.7- 5.9-
2024-04-15 07:24 am-------29.85- 74.1- 72.7- 5.9-
2024-04-15 07:18 am-------29.84- 74.1- 72.7- 5.9-
2024-04-15 07:12 am-------29.84- 74.1- 72.5- 5.9-
2024-04-15 07:06 am-------29.84- 74.1- 72.7- 5.9-
2024-04-15 07:00 am-------29.84+0.00 74.1- 72.9- 5.9-
2024-04-15 06:54 am-------29.84- 73.9- 72.5- 5.9-
2024-04-15 06:48 am-------29.84- 73.9- 72.7- 5.9-
2024-04-15 06:42 am-------29.83- 74.1- 72.9- 5.9-
2024-04-15 06:36 am-------29.83- 74.1- 72.7- 5.9-
2024-04-15 06:30 am-------29.83- 74.1- 72.7- 5.9-
2024-04-15 06:24 am-------29.83- 73.9- 72.3- 5.9-
2024-04-15 06:18 am-------29.83- 73.9- 72.5- 5.9-
2024-04-15 06:12 am-------29.83- 74.1- 72.7- 5.9-
2024-04-15 06:06 am-------29.83- 73.9- 72.5- 5.9-
2024-04-15 06:00 am-------29.83-0.02 74.1- 72.7- 5.9-
2024-04-15 05:54 am-------29.83- 74.1- 72.7- 5.9-
2024-04-15 05:48 am-------29.83- 74.1- 72.5- 5.9-
2024-04-15 05:42 am-------29.83- 74.1- 72.3- 5.9-
2024-04-15 05:36 am-------29.83- 74.1- 72.3- 5.9-
2024-04-15 05:30 am-------29.83- 74.1- 72.3- 5.9-
2024-04-15 05:24 am-------29.83- 74.1- 72.5- 5.9-
2024-04-15 05:18 am-------29.83- 74.1- 72.5- 5.9-
2024-04-15 05:12 am-------29.83- 74.1- 72.5- 5.9-
2024-04-15 05:06 am-------29.83- 74.3- 72.5- 5.9-
2024-04-15 05:00 am-------29.83-0.05 74.3- 72.3- 5.9-
2024-04-15 04:54 am-------29.83- 74.1- 72.1- 5.9-
2024-04-15 04:48 am-------29.83- 74.1- 72.3- 5.9-
2024-04-15 04:42 am-------29.83- 74.1- 72.3- 5.9-
2024-04-15 04:36 am-------29.83- 74.1- 72.3- 5.9-
2024-04-15 04:30 am-------29.83- 74.1- 72.5- 5.9-
2024-04-15 04:24 am-------29.83- 74.1- 72.5- 5.9-
2024-04-15 04:18 am-------29.83- 74.1- 72.5- 5.9-
2024-04-15 04:12 am-------29.83- 74.1- 72.5- 5.9-
2024-04-15 04:06 am-------29.83- 73.9- 72.3- 5.9-
2024-04-15 04:00 am-------29.83-0.06 73.9- 72.5- 5.9-
2024-04-15 03:54 am-------29.84- 73.9- 72.5- 5.9-
2024-04-15 03:48 am-------29.84- 73.9- 72.3- 5.9-
2024-04-15 03:42 am-------29.84- 73.9- 72.5- 5.9-
2024-04-15 03:30 am-------29.85- 73.9- 72.7- 5.9-
2024-04-15 03:24 am-------29.85- 73.9- 72.7- 5.9-
2024-04-15 03:18 am-------29.85- 73.8- 72.3- 5.9-
2024-04-15 03:12 am-------29.85- 73.8- 72.3- 5.9-
2024-04-15 03:06 am-------29.85- 73.8- 72.5- 5.9-
2024-04-15 03:00 am-------29.85-0.05 73.8- 72.3- 5.9-
2024-04-15 02:54 am-------29.85- 73.9- 72.5- 5.9-
2024-04-15 02:48 am-------29.86- 73.8- 72.3- 5.9-
2024-04-15 02:42 am-------29.86- 73.9- 72.5- 5.9-
2024-04-15 02:36 am-------29.86- 73.8- 72.1- 5.9-
2024-04-15 02:30 am-------29.87- 73.8- 72.1- 5.9-
2024-04-15 02:24 am-------29.87- 73.8- 72.3- 5.9-
2024-04-15 02:18 am-------29.88- 73.8- 72.3- 5.9-
2024-04-15 02:12 am-------29.88- 73.8- 72.3- 5.9-
2024-04-15 02:06 am-------29.88- 73.6- 72.1- 5.9-
2024-04-15 02:00 am-------29.88-0.04 73.6- 72.3- 5.9-
2024-04-15 01:54 am-------29.88- 73.6- 72.3- 5.9-
2024-04-15 01:48 am-------29.88- 73.6- 72.3- 5.9-
2024-04-15 01:42 am-------29.88- 73.6- 72.3- 5.9-
2024-04-15 01:36 am-------29.88- 73.4- 72.1- 5.9-
2024-04-15 01:30 am-------29.89- 73.6- 72.3- 5.9-
2024-04-15 01:24 am-------29.89- 73.4- 72.0- 5.9-
2024-04-15 01:18 am-------29.89- 73.6- 72.0- 5.9-
2024-04-15 01:12 am-------29.89- 73.4- 71.8- 5.9-
2024-04-15 01:06 am-------29.89- 73.4- 71.6- 5.9-
2024-04-15 01:00 am-------29.89-0.03 73.6- 72.0- 5.9-
2024-04-15 12:54 am-------29.89- 73.6- 72.1- 5.9-
2024-04-15 12:48 am-------29.89- 73.8- 72.1- 5.9-
2024-04-15 12:42 am-------29.89- 73.8- 72.3- 5.9-
2024-04-15 12:36 am-------29.90- 73.8- 72.1- 5.9-
2024-04-15 12:30 am-------29.90- 73.8- 72.1- 5.9-
2024-04-15 12:24 am-------29.90- 73.8- 72.1- 5.9-
2024-04-15 12:18 am-------29.90- 73.8- 72.1- 5.9-
2024-04-15 12:12 am-------29.90- 73.8- 72.3- 5.9-
2024-04-15 12:06 am-------29.90- 73.8- 72.3- 5.9-
2024-04-15 12:00 am-------29.91+0.00 73.8- 72.5- 5.9-
2024-04-14 11:54 pm-------29.91- 73.8- 72.5- 5.9-
2024-04-14 11:48 pm-------29.91- 73.6- 72.3- 5.9-
2024-04-14 11:42 pm-------29.91- 73.6- 72.3- 5.9-
2024-04-14 11:36 pm-------29.91- 73.6- 72.5- 5.9-
2024-04-14 11:30 pm-------29.91- 73.8- 72.7- 5.9-
2024-04-14 11:24 pm-------29.91- 73.8- 72.7- 5.9-
2024-04-14 11:18 pm-------29.91- 73.8- 72.7- 5.9-
2024-04-14 11:12 pm-------29.91- 73.8- 72.7- 5.9-
2024-04-14 11:06 pm-------29.91- 73.8- 72.3- 5.9-
2024-04-14 11:00 pm-------29.91+0.01 73.8- 72.5- 5.9-
2024-04-14 10:54 pm-------29.92- 73.8- 72.5- 5.9-
2024-04-14 10:48 pm-------29.92- 73.9- 72.7- 5.9-
2024-04-14 10:42 pm-------29.92- 73.8- 72.5- 5.9-
2024-04-14 10:36 pm-------29.92- 73.9- 72.9- 5.9-
2024-04-14 10:30 pm-------29.92- 73.8- 72.5- 5.9-
2024-04-14 10:24 pm-------29.92- 73.9- 72.9- 5.9-
2024-04-14 10:18 pm-------29.92- 73.8- 72.5- 5.9-
2024-04-14 10:12 pm-------29.92- 73.9- 72.7- 5.9-
2024-04-14 10:06 pm-------29.92- 73.9- 72.7- 5.9-
2024-04-14 10:00 pm-------29.92+0.03 73.9- 72.7- 5.9-
2024-04-14 09:54 pm-------29.92- 74.1- 72.9- 5.9-
2024-04-14 09:48 pm-------29.92- 73.9- 72.5- 5.9-
2024-04-14 09:42 pm-------29.92- 73.9- 72.5- 5.9-
2024-04-14 09:36 pm-------29.92- 73.9- 72.5- 5.9-
2024-04-14 09:30 pm-------29.92- 73.9- 72.5- 5.9-
2024-04-14 09:24 pm-------29.92- 73.9- 72.7- 5.9-
2024-04-14 09:18 pm-------29.92- 73.9- 72.5- 5.9-
2024-04-14 09:12 pm-------29.91- 73.9- 72.5- 5.9-
2024-04-14 09:06 pm-------29.91- 74.1- 72.7- 5.9-
2024-04-14 09:00 pm-------29.91+0.02 73.9- 72.5- 5.9-
2024-04-14 08:54 pm-------29.91- 74.1- 72.7- 5.9-
2024-04-14 08:48 pm-------29.91- 74.1- 72.7- 5.9-
2024-04-14 08:42 pm-------29.91- 73.9- 72.5- 5.9-
2024-04-14 08:36 pm-------29.91- 73.9- 72.5- 5.9-
2024-04-14 08:30 pm-------29.91- 74.1- 72.7- 5.9-
2024-04-14 08:24 pm-------29.91- 74.1- 72.5- 5.9-
2024-04-14 08:18 pm-------29.91- 74.1- 72.7- 5.9-
2024-04-14 08:12 pm-------29.91- 74.3- 72.9- 5.9-
2024-04-14 08:06 pm-------29.90- 74.3- 72.7- 5.9-
2024-04-14 08:00 pm-------29.90-0.01 74.1- 72.5- 5.9-
2024-04-14 07:54 pm-------29.90- 74.3- 72.9- 5.9-
2024-04-14 07:48 pm-------29.90----- 5.9-
2024-04-14 07:42 pm-------29.90----- 5.9-
2024-04-14 07:36 pm-------29.90----- 5.9-
2024-04-14 07:30 pm-------29.90- 74.5- 72.7- 5.9-
2024-04-14 07:24 pm-------29.89- 74.5- 72.7- 5.9-
2024-04-14 07:18 pm--------- 74.7- 72.7- 5.9-
2024-04-14 07:12 pm--------- 74.7- 72.7- 5.9-
2024-04-14 07:06 pm--------- 74.7- 72.7- 5.9-
2024-04-14 07:00 pm-------29.89-0.04 74.8- 72.9- 5.9-
2024-04-14 06:54 pm-------29.89- 75.0- 72.9- 5.9-
2024-04-14 06:48 pm-------29.89- 75.0- 72.9- 5.9-
2024-04-14 06:42 pm-------29.89- 75.0- 72.9- 5.9-
2024-04-14 06:36 pm-------29.89- 75.2- 73.0- 5.9-
2024-04-14 06:30 pm-------29.89- 75.2- 72.9- 5.9-
2024-04-14 06:24 pm-------29.89- 75.2- 72.7- 5.9-
2024-04-14 06:18 pm-------29.90- 75.4- 72.9- 5.9-
2024-04-14 06:00 pm-------29.89-0.05---- 5.9-
2024-04-14 05:54 pm-------29.90----- 5.9-
2024-04-14 05:48 pm-------29.90- 75.9- 73.0- 5.9-
2024-04-14 05:42 pm-------29.90- 76.1- 73.0- 5.9-
2024-04-14 05:36 pm-------29.90- 76.1- 73.0- 5.9-
2024-04-14 05:30 pm-------29.91- 75.9- 73.0- 5.9-
2024-04-14 05:24 pm-------29.91- 75.9- 72.7- 5.9-
2024-04-14 05:18 pm-------29.91- 75.9- 73.2- 5.9-
2024-04-14 05:12 pm-------29.91- 75.7- 73.0- 5.9-
2024-04-14 05:06 pm-------29.91- 75.9- 73.0- 5.9-
2024-04-14 05:00 pm-------29.91-0.06 75.7- 72.9- 5.9-
2024-04-14 04:54 pm-------29.91- 75.7- 73.0- 5.9-
2024-04-14 04:48 pm-------29.91----- 5.9-
2024-04-14 04:42 pm-------29.91----- 5.9-
2024-04-14 04:36 pm-------29.91----- 5.9-
2024-04-14 04:30 pm-------29.91----- 5.9-
2024-04-14 04:24 pm-------29.92----- 5.9-
2024-04-14 04:18 pm-------29.92- 76.3- 73.0- 5.9-
2024-04-14 04:12 pm-------29.92- 76.3- 72.9- 5.9-
2024-04-14 04:06 pm-------29.92- 76.1- 72.9- 5.9-
2024-04-14 04:00 pm-------29.93-0.07 76.5- 72.9- 5.9-
2024-04-14 03:54 pm-------29.93- 76.5- 73.0- 5.9-
2024-04-14 03:48 pm-------29.93- 76.6- 73.0- 5.9-
2024-04-14 03:42 pm-------29.92- 76.1- 72.7- 5.9-
2024-04-14 03:36 pm-------29.93- 75.7- 72.5- 5.9-
2024-04-14 03:30 pm-------29.93- 75.9- 72.7- 5.9-
2024-04-14 03:24 pm-------29.94- 75.9- 72.7- 5.9-
2024-04-14 03:18 pm-------29.94- 76.1- 72.9- 5.9-
2024-04-14 03:12 pm-------29.94- 76.5- 72.7- 5.9-
2024-04-14 03:06 pm-------29.94- 76.6- 72.9- 5.9-
2024-04-14 03:00 pm-------29.95-0.06 77.0- 72.9- 5.9-
2024-04-14 02:54 pm-------29.95- 77.0- 72.9- 5.9-
2024-04-14 02:48 pm-------29.95- 76.6- 72.5- 5.9-
2024-04-14 02:42 pm-------29.95- 76.6- 72.3- 5.9-
2024-04-14 02:36 pm-------29.96- 76.6- 72.9- 5.9-
2024-04-14 02:30 pm-------29.96- 76.6- 72.5- 5.9-
2024-04-14 02:24 pm-------29.96- 76.8- 72.5- 5.9-
2024-04-14 02:18 pm-------29.96- 77.0- 72.5- 5.9-
2024-04-14 02:12 pm-------29.97- 76.8- 72.1- 5.9-
2024-04-14 02:06 pm-------29.97- 77.2- 72.3- 5.9-
2024-04-14 02:00 pm-------29.97-0.05---- 5.9-
2024-04-14 01:54 pm-------29.98----- 5.9-